Regional Weather Roundup
Issued by NWS

Home | Current Version | Previous Version | Graphics & Text | Print | Product List | Glossary On
Versions: 1 2 3 4 5 6 7 8 9 10 11 12 13 14 15 16 17 18 19 20 21 22 23 24 25 26 27 28 29 30 31 32 33 34 35 36 37 38 39 40 41 42 43 44 45 46 47 48 49 50
562
ASUS44 KJAN 191503
RWRMS

MISSISSIPPI HOURLY WEATHER ROUNDUP
NATIONAL WEATHER SERVICE JACKSON MS
1000 AM CDT SAT APR 19 2014

NOTE: "FAIR: INDICATES FEW OR NO CLOUDS BELOW 12,000 FEET WITH NO
SIGNIFICANT WEATHER AND/OR OBSTRUCTIONS TO VISIBILITY.

MSZ001>002-007>008-010>013-018>021-025>028-034>036-191600-
NORTHWEST MISSISSIPPI

CITY           SKY/WX    TMP DP  RH WIND       PRES   REMARKS
CLARKSDALE       N/A     66  55  68 NW8       30.23S
CLEVELAND      FAIR      65  58  77 N8        30.22S
GREENWOOD      SUNNY     65  54  67 NW6       30.21F
GREENVILLE     SUNNY     67  57  70 N5        30.21S
GRENADA        FAIR      68  54  60 N7        30.21S
OLIVE BRANCH   MOSUNNY   68  48  49 N6        30.23R
OXFORD         FAIR      66  48  52 NE9       30.22S
TUNICA         SUNNY     68  52  56 N7        30.24R
$$

MSZ003>006-009-014>017-022>024-029>033-037>039-191600-
NORTHEAST MISSISSIPPI

CITY           SKY/WX    TMP DP  RH WIND       PRES   REMARKS
BELMONT        FAIR      66  49  54 N9        30.19S
COLUMBUS AFB   SUNNY     67  53  60 N10       30.18S
CORINTH        FAIR      68  46  45 NE9       30.21S
GOLDN TRIANGLE SUNNY     68  52  56 N16       30.20S
STARKVILLE     FAIR      66  52  59 N8        30.17F
TUPELO         SUNNY     69  51  52 NE14      30.19S
$$

MSZ040-058-191600-
CENTRAL MISSISSIPPI

CITY           SKY/WX    TMP DP  RH WIND       PRES   REMARKS
JACKSON INTL   SUNNY     68  52  56 N8        30.19F
JACKSON HAWKNS SUNNY     68  50  52 N6        30.20F
MERIDIAN KEY   SUNNY     68  52  56 N10       30.17R
MERIDIAN NAS   SUNNY     68  50  52 N14       30.17R
RAYMOND        FAIR      66  61  82 N5        30.20S
VICKSBURG      SUNNY     67  52  58 VRB3      30.21S
$$

MSZ059>079-191600-
SOUTH MISSISSIPPI

CITY           SKY/WX    TMP DP  RH WIND       PRES   REMARKS
BROOKHAVEN     FAIR      66  54  63 N9        30.19F
COLUMBIA       FAIR      66  52  59 MISG      30.16F
HATTIESBURG    SUNNY     65  52  62 N9        30.18S
MCCOMB         SUNNY     67  49  52 N9        30.18R
NATCHEZ        MOSUNNY   66  52  59 NE6       30.21R
PINE BELT      SUNNY     66  52  59 N9        30.19S
$$

MSZ080>082-191600-
COASTAL MISSISSIPPI

CITY           SKY/WX    TMP DP  RH WIND       PRES   REMARKS
BILOXI         SUNNY     66  51  57 N9        30.14S
PASCAGOULA     SUNNY     65  51  60 N15       30.14R
GULFPORT       SUNNY     69  49  48 N12       30.14S
$$



USA.gov is the U.S. government's official web portal to all federal, state and local government web resources and services.